| time (UTC) | temp F | wind direction | speed knots | gust knots | rain 1hr in | rain 24hr in | rain mn in | humidity % | barometer mb |
| 20260507223505 | 65 | 227 | 1.7 | 7.8 | 0.00 | 0.06 | 0.04 | 35 | 1012.7 |
| 20260507223017 | 65 | 279 | 3.5 | 8.7 | 0.00 | 0.06 | 0.04 | 35 | 1012.7 |
| 20260507222512 | 64 | 261 | 1.7 | 8.7 | 0.00 | 0.06 | 0.04 | 36 | 1012.7 |
| 20260507222006 | 64 | 247 | 2.6 | 8.7 | 0.00 | 0.06 | 0.04 | 37 | 1012.8 |
| 20260507221524 | 64 | 238 | 1.7 | 13.0 | 0.00 | 0.06 | 0.04 | 39 | 1012.8 |
| 20260507221008 | 64 | 299 | 3.5 | 13.0 | 0.00 | 0.06 | 0.04 | 38 | 1012.9 |
| 20260507220512 | 64 | 331 | 2.6 | 8.7 | 0.00 | 0.06 | 0.04 | 38 | 1012.8 |
| 20260507220024 | 64 | 223 | 3.5 | 7.0 | 0.00 | 0.06 | 0.04 | 36 | 1012.8 |
| 20260507215511 | 64 | 300 | 2.6 | 7.8 | 0.00 | 0.06 | 0.04 | 36 | 1012.9 |
| 20260507215008 | 64 | 269 | 2.6 | 8.7 | 0.00 | 0.06 | 0.04 | 38 | 1012.8 |
| 20260507214509 | 64 | 216 | 3.5 | 8.7 | 0.00 | 0.06 | 0.04 | 37 | 1012.8 |
| 20260507214004 | 64 | 224 | 2.6 | 7.8 | 0.00 | 0.06 | 0.04 | 38 | 1012.9 |
| 20260507213507 | 64 | 321 | 2.6 | 7.8 | 0.00 | 0.06 | 0.04 | 41 | 1013.1 |
| 20260507213017 | 64 | 211 | 3.5 | 10.4 | 0.00 | 0.06 | 0.04 | 40 | 1013.1 |
| 20260507212506 | 63 | 272 | 3.5 | 10.4 | 0.00 | 0.06 | 0.04 | 40 | 1013.2 |
| 20260507212009 | 63 | 242 | 0.9 | 4.3 | 0.00 | 0.06 | 0.04 | 41 | 1013.1 |
| 20260507211521 | 64 | 347 | 0.9 | 8.7 | 0.00 | 0.06 | 0.04 | 41 | 1013.3 |
| 20260507211008 | 64 | 320 | 2.6 | 8.7 | 0.00 | 0.06 | 0.04 | 39 | 1013.3 |
| 20260507210509 | 65 | 222 | 0.9 | 7.0 | 0.00 | 0.06 | 0.04 | 41 | 1013.4 |
| 20260507210026 | 64 | 257 | 1.7 | 8.7 | 0.00 | 0.06 | 0.04 | 41 | 1013.5 |
| 20260507205508 | 63 | 223 | 3.5 | 8.7 | 0.00 | 0.06 | 0.04 | 43 | 1013.3 |
| 20260507205010 | 63 | 225 | 3.5 | 7.0 | 0.00 | 0.06 | 0.04 | 40 | 1013.4 |
| 20260507204525 | 62 | 216 | 1.7 | 9.6 | 0.00 | 0.06 | 0.04 | 43 | 1013.3 |
| 20260507204009 | 61 | 213 | 2.6 | 9.6 | 0.00 | 0.06 | 0.04 | 41 | 1013.5 |
| 20260507203510 | 63 | 265 | 2.6 | 6.1 | 0.00 | 0.06 | 0.04 | 43 | 1013.6 |
| 20260507203018 | 62 | 22 | 1.7 | 8.7 | 0.00 | 0.06 | 0.04 | 46 | 1013.6 |
| 20260507202508 | 62 | 219 | 2.6 | 8.7 | 0.00 | 0.06 | 0.04 | 43 | 1013.6 |
| 20260507202010 | 60 | 146 | 0.9 | 3.5 | 0.00 | 0.06 | 0.04 | 47 | 1013.7 |
| 20260507201520 | 61 | 200 | 0.9 | 7.0 | 0.00 | 0.06 | 0.04 | 45 | 1013.7 |
| 20260507201009 | 61 | 337 | 0.9 | 9.6 | 0.00 | 0.06 | 0.04 | 44 | 1013.8 |
| 20260507200508 | 62 | 5 | 4.3 | 9.6 | 0.00 | 0.06 | 0.04 | 43 | 1013.8 |
| 20260507200020 | 61 | 227 | 0.9 | 8.7 | 0.00 | 0.06 | 0.04 | 46 | 1013.8 |
| 20260507195508 | 60 | 242 | 0.9 | 5.2 | 0.00 | 0.06 | 0.04 | 47 | 1013.9 |
| 20260507195010 | 60 | 326 | 2.6 | 7.0 | 0.00 | 0.06 | 0.04 | 49 | 1013.9 |
| 20260507194529 | 59 | 338 | 1.7 | 7.8 | 0.00 | 0.06 | 0.04 | 49 | 1014.1 |
| 20260507194012 | 58 | 313 | 1.7 | 7.8 | 0.00 | 0.06 | 0.04 | 49 | 1014.1 |
| 20260507193510 | 58 | 290 | 0.9 | 4.3 | 0.00 | 0.06 | 0.04 | 51 | 1014.2 |
| 20260507193027 | 58 | 252 | 0.9 | 4.3 | 0.00 | 0.06 | 0.04 | 52 | 1014.1 |
| 20260507192511 | 58 | 292 | 1.7 | 4.3 | 0.00 | 0.06 | 0.04 | 51 | 1014.1 |
| 20260507192010 | 58 | 240 | 0.9 | 4.3 | 0.00 | 0.06 | 0.04 | 50 | 1014.1 |
| 20260507191520 | 59 | 310 | 0.9 | 4.3 | 0.00 | 0.06 | 0.04 | 49 | 1014.1 |
| 20260507191010 | 59 | 348 | 1.7 | 5.2 | 0.00 | 0.06 | 0.04 | 49 | 1014.1 |
| 20260507190507 | 59 | 300 | 1.7 | 9.6 | 0.00 | 0.06 | 0.04 | 51 | 1014.1 |
| 20260507190022 | 59 | 13 | 2.6 | 9.6 | 0.00 | 0.06 | 0.04 | 47 | 1014.1 |
| 20260507185511 | 59 | 293 | 0.9 | 7.0 | 0.00 | 0.06 | 0.04 | 48 | 1014.0 |
| 20260507185008 | 60 | 321 | 0.9 | 7.0 | 0.00 | 0.06 | 0.04 | 49 | 1014.0 |
| 20260507184524 | 59 | 331 | 1.7 | 7.8 | 0.00 | 0.06 | 0.04 | 50 | 1014.1 |
| 20260507184010 | 58 | 355 | 2.6 | 7.8 | 0.00 | 0.06 | 0.04 | 50 | 1014.2 |
| 20260507183510 | 58 | 5 | 1.7 | 7.8 | 0.00 | 0.06 | 0.04 | 52 | 1014.2 |
| 20260507183024 | 57 | 233 | 2.6 | 7.0 | 0.00 | 0.06 | 0.04 | 52 | 1014.2 |
| 20260507182013 | 57 | 298 | 0.9 | 3.5 | 0.00 | 0.06 | 0.04 | 55 | 1014.1 |
| 20260507181528 | 57 | 313 | 0.9 | 3.5 | 0.00 | 0.06 | 0.04 | 57 | 1014.2 |
| 20260507181013 | 57 | 296 | 0.9 | 3.5 | 0.00 | 0.06 | 0.04 | 57 | 1014.3 |
| 20260507180512 | 57 | 322 | 1.7 | 3.5 | 0.00 | 0.06 | 0.04 | 56 | 1014.3 |
| 20260507180021 | 56 | 275 | 0.0 | 3.5 | 0.00 | 0.06 | 0.04 | 59 | 1014.3 |
| 20260507175509 | 56 | 240 | 0.0 | 3.5 | 0.00 | 0.06 | 0.04 | 59 | 1014.4 |
| 20260507175008 | 56 | 338 | 0.9 | 2.6 | 0.00 | 0.06 | 0.04 | 59 | 1014.4 |
| 20260507174531 | 56 | 337 | 0.9 | 3.5 | 0.00 | 0.06 | 0.04 | 61 | 1014.4 |
| 20260507174010 | 56 | 286 | 0.9 | 3.5 | 0.00 | 0.06 | 0.04 | 62 | 1014.5 |
| 20260507173510 | 56 | 315 | 0.9 | 3.5 | 0.00 | 0.06 | 0.04 | 62 | 1014.4 |
| 20260507173047 | 55 | 310 | 1.7 | 4.3 | 0.00 | 0.06 | 0.04 | 60 | 1014.5 |
| 20260507172508 | 55 | 355 | 0.9 | 4.3 | 0.00 | 0.06 | 0.04 | 62 | 1014.5 |
| 20260507171528 | 55 | 290 | 0.0 | 2.6 | 0.00 | 0.06 | 0.04 | 64 | 1014.6 |
| 20260507171009 | 55 | 309 | 0.0 | 2.6 | 0.00 | 0.06 | 0.04 | 63 | 1014.6 |
| 20260507170032 | 55 | 329 | 0.9 | 4.3 | 0.00 | 0.06 | 0.04 | 60 | 1014.5 |
| 20260507165514 | 55 | 21 | 1.7 | 4.3 | 0.00 | 0.06 | 0.04 | 58 | 1014.5 |
| 20260507165008 | 56 | 209 | 0.9 | 3.5 | 0.00 | 0.06 | 0.04 | 63 | 1014.4 |
| 20260507164519 | 56 | 198 | 0.0 | 3.5 | 0.00 | 0.06 | 0.04 | 64 | 1014.4 |
| 20260507164007 | 55 | 170 | 0.0 | 3.5 | 0.00 | 0.06 | 0.04 | 67 | 1014.3 |
| 20260507163505 | 54 | 213 | 1.7 | 3.5 | 0.00 | 0.06 | 0.04 | 69 | 1014.3 |
| 20260507163003 | 54 | 202 | 0.9 | 2.6 | 0.00 | 0.06 | 0.04 | 74 | 1014.3 |
| 20260507162505 | 54 | 168 | 0.0 | 2.6 | 0.00 | 0.06 | 0.04 | 76 | 1014.3 |
| 20260507162004 | 52 | 161 | 0.9 | 3.5 | 0.00 | 0.06 | 0.04 | 79 | 1014.3 |
| 20260507161508 | 52 | 167 | 1.7 | 3.5 | 0.00 | 0.06 | 0.04 | 80 | 1014.4 |
| 20260507161003 | 52 | 167 | 0.9 | 2.6 | 0.00 | 0.06 | 0.04 | 81 | 1014.3 |
| 20260507160505 | 51 | 167 | 0.0 | 2.6 | 0.00 | 0.06 | 0.04 | 82 | 1014.4 |
| 20260507160014 | 51 | 166 | 0.9 | 2.6 | 0.00 | 0.06 | 0.04 | 83 | 1014.4 |
| 20260507155515 | 51 | 158 | 0.0 | 1.7 | 0.00 | 0.06 | 0.04 | 83 | 1014.4 |
| 20260507155011 | 51 | 158 | 0.0 | 1.7 | 0.00 | 0.06 | 0.04 | 83 | 1014.3 |
| 20260507154518 | 51 | 76 | 0.0 | 0.9 | 0.00 | 0.06 | 0.04 | 85 | 1014.3 |
| 20260507154003 | 51 | 76 | 0.0 | 0.0 | 0.00 | 0.06 | 0.04 | 85 | 1014.3 |
| 20260507153502 | 51 | 76 | 0.0 | 0.0 | 0.00 | 0.06 | 0.04 | 85 | 1014.2 |
| 20260507153005 | 51 | 76 | 0.0 | 0.0 | 0.00 | 0.06 | 0.04 | 86 | 1014.2 |
| 20260507152503 | 51 | 76 | 0.0 | 0.9 | 0.00 | 0.06 | 0.04 | 84 | 1014.1 |
| 20260507152001 | 51 | 76 | 0.0 | 0.9 | 0.00 | 0.06 | 0.04 | 84 | 1014.2 |
| 20260507151506 | 51 | 76 | 0.0 | 0.9 | 0.00 | 0.06 | 0.04 | 85 | 1014.3 |
| 20260507151003 | 51 | 76 | 0.0 | 0.9 | 0.00 | 0.06 | 0.04 | 86 | 1014.2 |
| 20260507150504 | 50 | 76 | 0.0 | 0.9 | 0.00 | 0.06 | 0.04 | 85 | 1014.2 |
| 20260507150012 | 50 | 76 | 0.0 | 0.9 | 0.00 | 0.06 | 0.04 | 84 | 1014.2 |
| 20260507145506 | 50 | 76 | 0.0 | 1.7 | 0.00 | 0.06 | 0.04 | 86 | 1014.1 |
| 20260507145007 | 50 | 76 | 0.0 | 1.7 | 0.00 | 0.06 | 0.04 | 85 | 1014.1 |
| 20260507144514 | 49 | 43 | 0.0 | 0.9 | 0.00 | 0.06 | 0.04 | 88 | 1014.1 |
| 20260507144006 | 48 | 5 | 0.0 | 0.9 | 0.00 | 0.06 | 0.04 | 89 | 1014.1 |
| 20260507143510 | 47 | 5 | 0.0 | 0.9 | 0.00 | 0.06 | 0.04 | 90 | 1014.1 |
| 20260507143018 | 46 | 306 | 0.0 | 0.9 | 0.00 | 0.06 | 0.04 | 91 | 1014.1 |
| 20260507142502 | 45 | 306 | 0.0 | 0.9 | 0.00 | 0.06 | 0.04 | 92 | 1014.0 |
| 20260507142007 | 45 | 306 | 0.0 | 0.9 | 0.00 | 0.06 | 0.04 | 93 | 1014.0 |
| 20260507141504 | 44 | 306 | 0.0 | 0.9 | 0.00 | 0.06 | 0.04 | 93 | 1014.0 |
| 20260507140006 | 43 | 342 | 0.0 | 0.9 | 0.00 | 0.06 | 0.04 | 94 | 1013.8 |
| 20260507135003 | 43 | 336 | 0.0 | 0.0 | 0.00 | 0.06 | 0.04 | 93 | 1013.8 |
| 20260507134511 | 43 | 336 | 0.0 | 0.0 | 0.00 | 0.06 | 0.04 | 93 | 1013.8 |
| 20260507134006 | 43 | 336 | 0.0 | 0.0 | 0.00 | 0.06 | 0.04 | 94 | 1013.8 |
| 20260507133019 | 42 | 336 | 0.0 | 0.9 | 0.00 | 0.06 | 0.04 | 93 | 1013.8 |
| 20260507132512 | 42 | 336 | 0.0 | 0.9 | 0.00 | 0.06 | 0.04 | 93 | 1013.8 |
| 20260507132008 | 42 | 350 | 0.0 | 0.9 | 0.00 | 0.06 | 0.04 | 93 | 1013.7 |
| 20260507131521 | 42 | 350 | 0.0 | 0.9 | 0.00 | 0.06 | 0.04 | 93 | 1013.6 |
| 20260507131004 | 42 | 350 | 0.0 | 0.0 | 0.00 | 0.06 | 0.04 | 93 | 1013.6 |
| 20260507130006 | 42 | 352 | 0.0 | 1.7 | 0.00 | 0.06 | 0.04 | 92 | 1013.5 |
| 20260507125005 | 42 | 337 | 0.0 | 0.0 | 0.00 | 0.06 | 0.04 | 93 | 1013.6 |
| 20260507124508 | 42 | 337 | 0.0 | 1.7 | 0.00 | 0.06 | 0.04 | 92 | 1013.6 |
| 20260507124006 | 43 | 337 | 0.0 | 2.6 | 0.00 | 0.06 | 0.04 | 92 | 1013.5 |
| 20260507123014 | 43 | 333 | 1.7 | 3.5 | 0.00 | 0.06 | 0.04 | 92 | 1013.3 |
| 20260507122009 | 43 | 346 | 0.9 | 2.6 | 0.00 | 0.06 | 0.04 | 92 | 1013.3 |
| 20260507121517 | 43 | 323 | 0.9 | 1.7 | 0.00 | 0.06 | 0.04 | 93 | 1013.2 |
| 20260507121006 | 43 | 328 | 0.0 | 1.7 | 0.00 | 0.06 | 0.04 | 93 | 1013.2 |
| 20260507120021 | 43 | 336 | 0.9 | 2.6 | 0.00 | 0.06 | 0.04 | 92 | 1013.2 |
| 20260507114505 | 44 | 286 | 0.0 | 2.6 | 0.00 | 0.06 | 0.04 | 92 | 1013.2 |
| 20260507113505 | 45 | 261 | 0.9 | 3.5 | 0.00 | 0.06 | 0.04 | 91 | 1013.2 |
| 20260507113013 | 45 | 336 | 0.0 | 3.5 | 0.00 | 0.06 | 0.04 | 91 | 1013.2 |
| 20260507110020 | 43 | 348 | 0.9 | 1.7 | 0.00 | 0.06 | 0.04 | 93 | 1013.2 |
| 20260507105509 | 43 | 338 | 0.9 | 1.7 | 0.00 | 0.06 | 0.04 | 93 | 1013.2 |
| 20260507105008 | 43 | 344 | 0.0 | 1.7 | 0.00 | 0.06 | 0.04 | 93 | 1013.2 |
| 20260507104523 | 43 | 336 | 0.9 | 1.7 | 0.00 | 0.06 | 0.04 | 94 | 1013.0 |
| 20260507104011 | 43 | 347 | 0.0 | 1.7 | 0.00 | 0.06 | 0.04 | 93 | 1013.0 |
| 20260507103512 | 43 | 342 | 0.9 | 2.6 | 0.00 | 0.06 | 0.04 | 93 | 1012.9 |
| 20260507103030 | 43 | 350 | 0.9 | 2.6 | 0.00 | 0.06 | 0.04 | 93 | 1012.9 |
| 20260507102508 | 43 | 352 | 0.0 | 1.7 | 0.00 | 0.06 | 0.04 | 93 | 1012.9 |
| 20260507101534 | 43 | 360 | 0.0 | 0.9 | 0.00 | 0.06 | 0.04 | 93 | 1013.0 |
| 20260507101011 | 43 | 360 | 0.0 | 0.9 | 0.00 | 0.06 | 0.04 | 93 | 1013.0 |
| 20260507100506 | 43 | 360 | 0.0 | 1.7 | 0.00 | 0.06 | 0.04 | 93 | 1013.0 |
| 20260507100022 | 43 | 360 | 0.0 | 1.7 | 0.00 | 0.06 | 0.04 | 92 | 1012.8 |
| 20260507095507 | 43 | 360 | 0.0 | 1.7 | 0.00 | 0.06 | 0.04 | 92 | 1012.8 |
| 20260507095007 | 44 | 360 | 0.0 | 1.7 | 0.00 | 0.06 | 0.04 | 92 | 1012.8 |
| 20260507094526 | 44 | 350 | 0.0 | 0.9 | 0.00 | 0.06 | 0.04 | 92 | 1012.7 |
| 20260507094013 | 44 | 349 | 0.0 | 0.9 | 0.00 | 0.06 | 0.04 | 92 | 1012.7 |
| 20260507093509 | 45 | 349 | 0.0 | 0.9 | 0.00 | 0.06 | 0.04 | 92 | 1012.7 |
| 20260507093025 | 45 | 349 | 0.0 | 2.6 | 0.00 | 0.06 | 0.04 | 92 | 1012.7 |
| 20260507092509 | 45 | 349 | 0.0 | 2.6 | 0.00 | 0.06 | 0.04 | 92 | 1012.7 |
| 20260507092008 | 45 | 351 | 0.9 | 1.7 | 0.00 | 0.06 | 0.04 | 92 | 1012.7 |
| 20260507091531 | 46 | 355 | 0.0 | 1.7 | 0.00 | 0.06 | 0.04 | 92 | 1012.7 |
| 20260507091011 | 46 | 355 | 0.9 | 2.6 | 0.00 | 0.06 | 0.04 | 92 | 1012.7 |
| 20260507090510 | 46 | 342 | 0.0 | 2.6 | 0.00 | 0.06 | 0.04 | 92 | 1012.7 |
| 20260507090028 | 46 | 349 | 0.9 | 1.7 | 0.01 | 0.06 | 0.04 | 91 | 1012.6 |
| 20260507085510 | 47 | 14 | 0.9 | 1.7 | 0.02 | 0.06 | 0.04 | 90 | 1012.7 |
| 20260507084521 | 47 | 46 | 0.0 | 0.9 | 0.02 | 0.06 | 0.04 | 91 | 1012.7 |
| 20260507084007 | 47 | 46 | 0.0 | 1.7 | 0.02 | 0.06 | 0.04 | 90 | 1012.7 |
| 20260507082010 | 48 | 215 | 0.0 | 1.7 | 0.04 | 0.06 | 0.04 | 89 | 1012.7 |
| 20260507081527 | 48 | 215 | 0.0 | 2.6 | 0.04 | 0.06 | 0.04 | 89 | 1012.6 |
| 20260507081009 | 48 | 215 | 0.9 | 2.6 | 0.04 | 0.06 | 0.04 | 89 | 1012.7 |
| 20260507080511 | 48 | 5 | 0.0 | 1.7 | 0.04 | 0.06 | 0.04 | 88 | 1012.5 |
| 20260507080026 | 49 | 19 | 0.0 | 3.5 | 0.03 | 0.05 | 0.03 | 87 | 1012.6 |
| 20260507075510 | 49 | 28 | 0.0 | 3.5 | 0.02 | 0.04 | 0.02 | 85 | 1012.6 |
| 20260507075012 | 49 | 13 | 0.0 | 2.6 | 0.02 | 0.04 | 0.02 | 85 | 1012.8 |
| 20260507074527 | 50 | 317 | 0.0 | 1.7 | 0.02 | 0.04 | 0.02 | 84 | 1012.4 |
| 20260507074010 | 49 | 292 | 0.9 | 1.7 | 0.02 | 0.04 | 0.02 | 83 | 1012.5 |
| 20260507073021 | 49 | 346 | 0.9 | 2.6 | 0.00 | 0.02 | 0.00 | 82 | 1011.9 |
| 20260507072508 | 49 | 90 | 0.0 | 0.0 | 0.00 | 0.02 | 0.00 | 81 | 1011.9 |
| 20260507072008 | 50 | 90 | 0.0 | 1.7 | 0.00 | 0.02 | 0.00 | 77 | 1011.8 |
| 20260507071524 | 50 | 90 | 0.0 | 1.7 | 0.00 | 0.02 | 0.00 | 77 | 1011.7 |
| 20260507071010 | 49 | 90 | 0.0 | 1.7 | 0.00 | 0.02 | 0.00 | 78 | 1011.7 |
| 20260507070512 | 49 | 180 | 0.0 | 1.7 | 0.00 | 0.02 | 0.00 | 79 | 1011.6 |
| 20260507070038 | 50 | 180 | 0.0 | 0.9 | 0.00 | 0.02 | 0.00 | 76 | 1011.5 |
| 20260507065513 | 50 | 180 | 0.0 | 0.9 | 0.00 | 0.02 | 0.00 | 75 | 1011.6 |
| 20260507065013 | 51 | 180 | 0.0 | 1.7 | 0.00 | 0.02 | 0.00 | 73 | 1011.6 |
| 20260507064516 | 51 | 180 | 0.0 | 2.6 | 0.00 | 0.02 | 0.00 | 72 | 1011.6 |
| 20260507063020 | 55 | 205 | 0.9 | 2.6 | 0.00 | 0.02 | 0.00 | 61 | 1011.4 |
| 20260507062010 | 54 | 200 | 0.9 | 2.6 | 0.00 | 0.02 | 0.00 | 63 | 1011.3 |
| 20260507061523 | 54 | 311 | 0.0 | 2.6 | 0.00 | 0.02 | 0.00 | 62 | 1011.3 |
| 20260507061011 | 54 | 292 | 0.0 | 1.7 | 0.00 | 0.02 | 0.00 | 62 | 1011.4 |
| 20260507060508 | 54 | 288 | 0.0 | 2.6 | 0.00 | 0.02 | 0.00 | 62 | 1011.4 |
| 20260507060024 | 54 | 317 | 0.0 | 3.5 | 0.00 | 0.02 | 0.00 | 62 | 1011.5 |
| 20260507055508 | 53 | 339 | 1.7 | 3.5 | 0.00 | 0.02 | 0.02 | 61 | 1011.5 |
| 20260507055009 | 53 | 325 | 0.0 | 2.6 | 0.00 | 0.02 | 0.02 | 62 | 1011.4 |
| 20260507054527 | 53 | 309 | 0.0 | 2.6 | 0.00 | 0.02 | 0.02 | 63 | 1011.4 |
| 20260507054008 | 54 | 302 | 0.9 | 3.5 | 0.00 | 0.02 | 0.02 | 62 | 1011.3 |
| 20260507053511 | 53 | 311 | 0.0 | 3.5 | 0.00 | 0.02 | 0.02 | 64 | 1011.4 |
| 20260507052007 | 52 | 13 | 0.0 | 2.6 | 0.00 | 0.02 | 0.02 | 69 | 1011.4 |
| 20260507051520 | 53 | 278 | 0.0 | 2.6 | 0.00 | 0.02 | 0.02 | 68 | 1011.4 |
| 20260507051009 | 53 | 339 | 0.9 | 2.6 | 0.00 | 0.02 | 0.02 | 69 | 1011.5 |
| 20260507050029 | 54 | 288 | 0.9 | 4.3 | 0.00 | 0.02 | 0.02 | 67 | 1011.3 |
| 20260507045509 | 54 | 295 | 0.9 | 4.3 | 0.00 | 0.02 | 0.02 | 67 | 1011.3 |
| 20260507045009 | 53 | 265 | 0.9 | 3.5 | 0.00 | 0.02 | 0.02 | 69 | 1011.3 |
| 20260507044524 | 52 | 267 | 0.9 | 3.5 | 0.00 | 0.02 | 0.02 | 74 | 1011.4 |
| 20260507044015 | 52 | 288 | 0.9 | 3.5 | 0.00 | 0.02 | 0.02 | 75 | 1011.5 |
| 20260507043510 | 52 | 296 | 0.9 | 2.6 | 0.01 | 0.02 | 0.02 | 78 | 1011.5 |
| 20260507043026 | 52 | 360 | 0.9 | 2.6 | 0.02 | 0.02 | 0.02 | 80 | 1011.6 |
| 20260507042511 | 52 | 244 | 0.0 | 2.6 | 0.02 | 0.02 | 0.02 | 76 | 1011.6 |
| 20260507042014 | 52 | 309 | 0.9 | 2.6 | 0.02 | 0.02 | 0.02 | 79 | 1011.6 |
| 20260507041528 | 52 | 317 | 0.9 | 2.6 | 0.02 | 0.02 | 0.02 | 79 | 1011.7 |
| 20260507041008 | 52 | 221 | 0.9 | 2.6 | 0.02 | 0.02 | 0.02 | 80 | 1011.7 |
| 20260507040023 | 52 | 336 | 0.0 | 3.5 | 0.02 | 0.02 | 0.02 | 78 | 1011.5 |
| 20260507035508 | 53 | 330 | 1.7 | 3.5 | 0.02 | 0.02 | 0.02 | 78 | 1011.5 |
| 20260507034524 | 54 | 223 | 0.9 | 4.3 | 0.02 | 0.02 | 0.02 | 73 | 1011.4 |
| 20260507034007 | 54 | 210 | 0.9 | 4.3 | 0.02 | 0.02 | 0.02 | 74 | 1011.6 |
| 20260507033507 | 56 | 323 | 0.9 | 3.5 | 0.01 | 0.01 | 0.01 | 67 | 1011.5 |
| 20260507033030 | 57 | 288 | 0.9 | 4.3 | 0.00 | 0.00 | 0.00 | 61 | 1011.5 |
| 20260507032513 | 58 | 211 | 0.9 | 7.8 | 0.00 | 0.00 | 0.00 | 58 | 1011.3 |
| 20260507032017 | 57 | 248 | 3.5 | 7.8 | 0.00 | 0.00 | 0.00 | 56 | 1011.0 |
| 20260507031537 | 57 | 236 | 0.9 | 1.7 | 0.00 | 0.00 | 0.00 | 61 | 1011.0 |
| 20260507031014 | 57 | 270 | 0.0 | 1.7 | 0.00 | 0.00 | 0.00 | 62 | 1010.9 |
| 20260507030512 | 57 | 315 | 0.0 | 1.7 | 0.00 | 0.00 | 0.00 | 61 | 1010.8 |
| 20260507030031 | 57 | 315 | 0.0 | 1.7 | 0.00 | 0.00 | 0.00 | 63 | 1010.8 |
| 20260507025008 | 58 | 342 | 0.0 | 2.6 | 0.00 | 0.00 | 0.00 | 57 | 1010.8 |
| 20260507023507 | 61 | 319 | 0.0 | 1.7 | 0.00 | 0.00 | 0.00 | 47 | 1010.9 |
| 20260507023026 | 61 | 276 | 0.0 | 1.7 | 0.00 | 0.00 | 0.00 | 46 | 1010.8 |
| 20260507022509 | 62 | 276 | 0.0 | 1.7 | 0.00 | 0.00 | 0.00 | 43 | 1010.8 |
| 20260507022011 | 63 | 212 | 0.0 | 3.5 | 0.00 | 0.00 | 0.00 | 43 | 1010.9 |
| 20260507021525 | 63 | 329 | 0.0 | 6.1 | 0.00 | 0.00 | 0.00 | 42 | 1010.9 |
| 20260507021008 | 63 | 321 | 0.9 | 6.1 | 0.00 | 0.00 | 0.00 | 41 | 1010.9 |
| 20260507020508 | 63 | 331 | 0.9 | 6.1 | 0.00 | 0.00 | 0.00 | 41 | 1010.8 |
| 20260507020026 | 63 | 287 | 0.9 | 3.5 | 0.00 | 0.00 | 0.00 | 42 | 1010.9 |
| 20260507015507 | 63 | 284 | 0.0 | 1.7 | 0.00 | 0.00 | 0.00 | 41 | 1010.8 |
| 20260507015012 | 64 | 277 | 0.0 | 2.6 | 0.00 | 0.00 | 0.00 | 41 | 1010.8 |
| 20260507014535 | 64 | 267 | 0.0 | 2.6 | 0.00 | 0.00 | 0.00 | 40 | 1010.8 |
| 20260507014007 | 64 | 332 | 0.0 | 2.6 | 0.00 | 0.00 | 0.00 | 41 | 1010.8 |
| 20260507013503 | 64 | 281 | 0.0 | 1.7 | 0.00 | 0.00 | 0.00 | 40 | 1010.7 |
| 20260507013004 | 64 | 319 | 0.0 | 1.7 | 0.00 | 0.00 | 0.00 | 39 | 1010.7 |
| 20260507012505 | 64 | 265 | 0.0 | 1.7 | 0.00 | 0.00 | 0.00 | 40 | 1010.8 |
| 20260507012004 | 64 | 240 | 0.0 | 1.7 | 0.00 | 0.00 | 0.00 | 39 | 1010.7 |
| 20260507011525 | 64 | 240 | 0.0 | 4.3 | 0.00 | 0.00 | 0.00 | 39 | 1010.8 |
| 20260507011006 | 65 | 284 | 0.0 | 4.3 | 0.00 | 0.00 | 0.00 | 38 | 1010.8 |
| 20260507010510 | 65 | 333 | 0.0 | 5.2 | 0.00 | 0.00 | 0.00 | 38 | 1010.9 |
| 20260507005508 | 65 | 324 | 1.7 | 5.2 | 0.00 | 0.00 | 0.00 | 37 | 1010.8 |
| 20260507005007 | 65 | 247 | 0.9 | 7.0 | 0.00 | 0.00 | 0.00 | 36 | 1010.8 |
| 20260507004009 | 66 | 244 | 2.6 | 8.7 | 0.00 | 0.00 | 0.00 | 35 | 1010.8 |
| 20260507003503 | 65 | 217 | 3.5 | 8.7 | 0.00 | 0.00 | 0.00 | 35 | 1011.0 |
| 20260507003004 | 65 | 246 | 1.7 | 3.5 | 0.00 | 0.00 | 0.00 | 35 | 1011.0 |
| 20260507002504 | 65 | 347 | 0.0 | 5.2 | 0.00 | 0.00 | 0.00 | 35 | 1011.1 |
| 20260507002004 | 65 | 310 | 1.7 | 7.0 | 0.00 | 0.00 | 0.00 | 34 | 1011.1 |
| 20260507001511 | 65 | 273 | 1.7 | 6.1 | 0.00 | 0.00 | 0.00 | 34 | 1011.1 |
| 20260507001006 | 66 | 239 | 0.9 | 4.3 | 0.00 | 0.00 | 0.00 | 35 | 1011.0 |
| 20260507000504 | 66 | 338 | 0.9 | 7.8 | 0.00 | 0.00 | 0.00 | 35 | 1011.0 |
| 20260506235504 | 66 | 350 | 0.9 | 7.8 | 0.00 | 0.00 | 0.00 | 33 | 1011.1 |
| 20260506235007 | 66 | 225 | 0.9 | 7.8 | 0.00 | 0.00 | 0.00 | 33 | 1011.0 |
| 20260506234009 | 66 | 311 | 1.7 | 7.8 | 0.00 | 0.00 | 0.00 | 32 | 1011.0 |
| 20260506233507 | 66 | 319 | 0.9 | 7.0 | 0.00 | 0.00 | 0.00 | 33 | 1011.0 |
| 20260506232506 | 67 | 292 | 3.5 | 8.7 | 0.00 | 0.00 | 0.00 | 32 | 1011.1 |
| 20260506232003 | 67 | 280 | 1.7 | 9.6 | 0.00 | 0.00 | 0.00 | 32 | 1011.1 |
| 20260506231506 | 67 | 299 | 2.6 | 9.6 | 0.00 | 0.00 | 0.00 | 32 | 1011.2 |
| 20260506231004 | 66 | 321 | 2.6 | 10.4 | 0.00 | 0.00 | 0.00 | 33 | 1011.3 |
| 20260506230504 | 66 | 215 | 4.3 | 10.4 | 0.00 | 0.00 | 0.00 | 33 | 1011.2 |
| 20260506230010 | 66 | 223 | 6.1 | 10.4 | 0.00 | 0.00 | 0.00 | 33 | 1011.2 |
| 20260506225502 | 66 | 208 | 6.1 | 10.4 | 0.00 | 0.00 | 0.00 | 32 | 1011.2 |
| 20260506225009 | 67 | 263 | 3.5 | 8.7 | 0.00 | 0.00 | 0.00 | 32 | 1011.3 |
| 20260506224006 | 67 | 281 | 1.7 | 12.2 | 0.00 | 0.00 | 0.00 | 33 | 1011.3 |